[[{"header":{"parameterUnit":"m.s-1","parameterCategory":1,"la1":30.2991,"la2":30.254,"lo1":-89.0895,"lo2":-89.0444,"dy":0.0017,"dx":0.0017,"nx":28,"ny":28,"refTime":"2024-06-23T03:00:00:Z","depth":0,"parameterNumber":2,"parameterNumberName":"U-component_of_WINDS"},"data":[0,0,0,0,0,0,0,0,0,0,0,0,0,0,0,0,0,0,0,0,0,0,0,0,0,0,0,0,0,0,0,0,0,0,0,0,0,0,0,0,0,0,0,0,0,0,0,0,0,0,0,0,0,0,0,0,0,0,0.3403,0.3404,0,0.3453,0.3453,0.3454,0.3491,0.3491,0.3492,0.3492,0.3544,0.3545,0.3546,0,0,0,0,0,0,0,0,0,0,0,0,0,0.3342,0.3343,0.3403,0.3404,0.3405,0.3453,0.3454,0.3454,0.3491,0.3491,0.3492,0.3492,0.3543,0.3545,0.3546,0,0,0,0,0,0,0,0,0,0,0,0,0,0.3378,0.3343,0.3403,0.3429,0.3432,0.3453,0.3454,0.3454,0.3491,0.3491,0.3492,0.3492,0.3543,0.3545,0.3546,0.3546,0,0,0.3551,0.3552,0,0,0,0,0,0,0,0,0.3376,0.338,0.3424,0.3427,0.343,0.3466,0.3451,0.3485,0.3491,0.3468,0.3492,0.3493,0.3518,0.3521,0.353,0.3549,0.3551,0.3551,0.3552,0.3553,0.3553,0,0,0,0,0,0,0,0.3373,0.3378,0.3423,0.3425,0.3429,0.3438,0.3444,0.3458,0.349,0.347,0.3473,0.3479,0.3519,0.3528,0.3531,0.3552,0.3551,0.3553,0.3554,0.3554,0.3574,0.3574,0,0,0,0,0,0,0.3367,0.3376,0.3421,0.3425,0.3404,0.3439,0.3445,0.3454,0.349,0.3496,0.3478,0.348,0.3525,0.3529,0.3533,0.3536,0.3553,0.3554,0.3555,0.3575,0.3574,0.3574,0,0,0,0,0,0,0.3365,0.337,0.3419,0.3401,0.3408,0.3439,0.3449,0.3455,0.3464,0.3495,0.3501,0.3481,0.3526,0.3531,0.3543,0.3538,0.3555,0.3557,0.3575,0.3575,0.3574,0.3542,0,0,0,0,0,0,0.3363,0.337,0.337,0.3401,0.3409,0.3428,0.3449,0.3456,0.3466,0.3469,0.35,0.3505,0.3526,0.354,0.3544,0.3541,0.3558,0.3576,0.3575,0.3574,0.3543,0.354,0.3537,0,0,0,0,0,0.3361,0.3359,0.3369,0.3375,0.3409,0.3427,0.3432,0.3456,0.3466,0.3466,0.3487,0.3504,0.3538,0.3541,0.3546,0.3543,0.3576,0.3575,0.3574,0.3545,0.354,0.3537,0,0,0,0,0,0,0.3326,0.3363,0.3376,0.3383,0.3402,0.3434,0.3435,0.3451,0.3468,0.347,0.35,0.3506,0.3515,0.3531,0.3533,0.3546,0.3559,0.3559,0.3535,0.3532,0.3529,0.3525,0.3559,0,0,0,0,0,0.3319,0.3331,0.3362,0.3366,0.3375,0.3403,0.3412,0.3429,0.345,0.3458,0.3479,0.3499,0.3515,0.3524,0.354,0.3546,0.3553,0.3546,0.3543,0.354,0.354,0.3545,0.3542,0.3571,0.3571,0.3571,0,0,0.3306,0.3327,0.3332,0.336,0.3376,0.3388,0.341,0.3421,0.343,0.346,0.3472,0.3489,0.3513,0.3522,0.3527,0.3535,0.3534,0.3539,0.3537,0.3538,0.3544,0.3541,0.3538,0.357,0.357,0.357,0,0,0.3286,0.3303,0.3308,0.3325,0.3349,0.3368,0.3369,0.3399,0.3411,0.3424,0.3447,0.3459,0.3484,0.3501,0.3512,0.35,0.3517,0.3504,0.3488,0.3492,0.349,0.3488,0.3484,0.3482,0.3503,0.3503,0.3503,0,0.3266,0.3283,0.3309,0.3319,0.333,0.3358,0.3364,0.3378,0.3407,0.3415,0.3423,0.3456,0.3474,0.3488,0.3485,0.3493,0.3496,0.3501,0.3488,0.3487,0.3485,0.3482,0.348,0.3502,0.3502,0.3502,0.3502,0,0.3258,0.3269,0.3271,0.3298,0.3309,0.3317,0.3344,0.3353,0.3369,0.3387,0.3401,0.3424,0.3445,0.3449,0.3465,0.3465,0.347,0.3483,0.3497,0.3481,0.3478,0.3477,0.3499,0.35,0.35,0.3501,0,0,0.3217,0.3258,0.3258,0.3271,0.3301,0.3311,0.332,0.334,0.3348,0.3367,0.3376,0.3397,0.3409,0.3423,0.3441,0.3444,0.3434,0.3457,0.3458,0.3452,0.3436,0.3426,0.3424,0.3445,0.3445,0.3445,0.3434,0,0.3203,0.322,0.3244,0.3254,0.3265,0.3292,0.33,0.332,0.3337,0.335,0.337,0.3384,0.34,0.3408,0.3413,0.3434,0.3431,0.3435,0.3454,0.3454,0.3447,0.3422,0.3412,0.34,0.3433,0.3433,0.3433,0,0.3188,0.3205,0.3216,0.3245,0.3251,0.3258,0.3279,0.3291,0.3314,0.3326,0.3341,0.3361,0.3372,0.3385,0.3402,0.3405,0.3414,0.3426,0.3426,0.3429,0.3442,0.3424,0.3397,0.3395,0.3431,0.3431,0.3431,0,0.3158,0.3184,0.3194,0.3204,0.3238,0.3243,0.3257,0.328,0.3291,0.331,0.3317,0.3337,0.3348,0.3363,0.3387,0.3394,0.3402,0.3417,0.3413,0.3412,0.3413,0.3413,0.3387,0.3419,0.3419,0.3419,0.3419,0,0.3139,0.3145,0.3181,0.3187,0.3195,0.3222,0.3229,0.3246,0.3267,0.3277,0.3302,0.3311,0.3343,0.3356,0.3375,0.3387,0.3392,0.3402,0.3407,0.34,0.3399,0.3407,0.3408,0.3419,0.3419,0.3419,0.3419,0,0.3106,0.3131,0.3144,0.3175,0.3183,0.3187,0.3215,0.3222,0.3241,0.3254,0.3259,0.3289,0.3306,0.3332,0.3356,0.337,0.3378,0.3386,0.337,0.3373,0.3368,0.3368,0.3346,0.3345,0.3377,0.3377,0.3377,0,0.3093,0.3098,0.313,0.3138,0.3152,0.3166,0.3177,0.3204,0.3215,0.3242,0.3246,0.3265,0.3281,0.3307,0.3332,0.3351,0.336,0.3351,0.3363,0.3356,0.336,0.336,0.3361,0.3348,0.3348,0.3347,0.3347,0,0.3066,0.3078,0.3093,0.3113,0.3126,0.3142,0.316,0.3166,0.3198,0.3209,0.3226,0.3239,0.3264,0.3283,0.3306,0.3322,0.334,0.3343,0.3343,0.3336,0.3327,0.3332,0.3362,0.3344,0.3344,0.3344,0.3344,0.3345,0.3043,0.3049,0.3073,0.3089,0.3105,0.3122,0.313,0.315,0.3165,0.3188,0.3203,0.322,0.3243,0.3276,0.329,0.3304,0.3312,0.3312,0.3312,0.3312,0.331,0.3324,0.3309,0.3309,0.3309,0.3309,0.3309,0,0.3018,0.3035,0.3049,0.3074,0.3087,0.3102,0.3123,0.3133,0.3147,0.3167,0.3183,0.3204,0.3222,0.3248,0.3268,0.3274,0.3283,0.3279,0.3279,0.3282,0.3301,0.3299,0.3271,0.3271,0.3271,0.3271,0.3271,0.3271,0.3007,0.3018,0.3032,0.3052,0.3069,0.3085,0.3096,0.3111,0.3127,0.3149,0.3164,0.3181,0.3204,0.3226,0.3244,0.3251,0.3257,0.325,0.326,0.3277,0.3281,0.3284,0.3282,0.3251,0.3251,0.324,0.324,0.324]},{"header":{"parameterUnit":"m.s-1","parameterCategory":1,"la1":30.2991,"la2":30.254,"lo1":-89.0895,"lo2":-89.0444,"dy":0.0017,"dx":0.0017,"nx":28,"ny":28,"refTime":"2024-06-23T03:00:00:Z","depth":0,"parameterNumber":3,"parameterNumberName":"V-component_of_WINDS"},"data":[0,0,0,0,0,0,0,0,0,0,0,0,0,0,0,0,0,0,0,0,0,0,0,0,0,0,0,0,0,0,0,0,0,0,0,0,0,0,0,0,0,0,0,0,0,0,0,0,0,0,0,0,0,0,0,0,0,0,-0.1841,-0.1841,0,-0.1814,-0.1814,-0.1813,-0.1787,-0.1787,-0.1787,-0.1786,-0.1758,-0.1758,-0.1757,0,0,0,0,0,0,0,0,0,0,0,0,0,-0.187,-0.1869,-0.1841,-0.1841,-0.184,-0.1814,-0.1814,-0.1813,-0.1787,-0.1787,-0.1786,-0.1786,-0.1758,-0.1758,-0.1757,0,0,0,0,0,0,0,0,0,0,0,0,0,-0.1851,-0.1869,-0.1841,-0.1824,-0.1822,-0.1814,-0.1814,-0.1813,-0.1787,-0.1787,-0.1786,-0.1786,-0.1759,-0.1758,-0.1757,-0.1763,0,0,-0.1755,-0.1755,0,0,0,0,0,0,0,0,-0.1852,-0.185,-0.1827,-0.1825,-0.1823,-0.1803,-0.1814,-0.1796,-0.1787,-0.1801,-0.1786,-0.1786,-0.1774,-0.1772,-0.1768,-0.1762,-0.1761,-0.1755,-0.1755,-0.1755,-0.1754,0,0,0,0,0,0,0,-0.1854,-0.1851,-0.183,-0.1827,-0.1824,-0.1818,-0.1815,-0.181,-0.179,-0.1799,-0.1797,-0.1795,-0.1773,-0.1768,-0.1767,-0.176,-0.1755,-0.1755,-0.1754,-0.1754,-0.1759,-0.176,0,0,0,0,0,0,-0.1858,-0.1853,-0.1831,-0.1829,-0.1837,-0.1818,-0.1814,-0.181,-0.179,-0.1787,-0.1795,-0.1794,-0.177,-0.1768,-0.1766,-0.1772,-0.1755,-0.1754,-0.1754,-0.1759,-0.176,-0.176,0,0,0,0,0,0,-0.1858,-0.1856,-0.1832,-0.184,-0.1837,-0.1818,-0.1814,-0.181,-0.1806,-0.1787,-0.1783,-0.1795,-0.1769,-0.1767,-0.1764,-0.1771,-0.1754,-0.1753,-0.1758,-0.1759,-0.176,-0.1785,0,0,0,0,0,0,-0.1859,-0.1856,-0.1858,-0.1841,-0.1837,-0.1831,-0.1814,-0.181,-0.1805,-0.1803,-0.1786,-0.1782,-0.1769,-0.1766,-0.1764,-0.177,-0.1753,-0.1758,-0.1759,-0.176,-0.1784,-0.1787,-0.179,0,0,0,0,0,-0.186,-0.1866,-0.1859,-0.1856,-0.1839,-0.1832,-0.1829,-0.1814,-0.1806,-0.1808,-0.1796,-0.1783,-0.1771,-0.1766,-0.1763,-0.1769,-0.1757,-0.1758,-0.176,-0.1783,-0.1786,-0.1789,0,0,0,0,0,0,-0.1885,-0.1864,-0.1855,-0.1855,-0.1846,-0.1827,-0.1829,-0.1818,-0.181,-0.1808,-0.1789,-0.1786,-0.1786,-0.1777,-0.1772,-0.1775,-0.1762,-0.1763,-0.178,-0.1784,-0.1787,-0.1789,-0.1752,0,0,0,0,0,-0.189,-0.1886,-0.1868,-0.187,-0.1866,-0.1849,-0.1845,-0.1834,-0.1823,-0.1818,-0.1806,-0.1796,-0.179,-0.1786,-0.178,-0.1782,-0.1779,-0.1785,-0.1788,-0.1791,-0.1792,-0.1794,-0.1797,-0.1764,-0.1764,-0.1764,0,0,-0.1902,-0.189,-0.1888,-0.1875,-0.1866,-0.1863,-0.1845,-0.1842,-0.1839,-0.1818,-0.1815,-0.1806,-0.1793,-0.1794,-0.1794,-0.1787,-0.18,-0.1792,-0.1794,-0.1794,-0.1795,-0.1798,-0.1801,-0.1765,-0.1765,-0.1765,0,0,-0.192,-0.1911,-0.1912,-0.1904,-0.1891,-0.1879,-0.188,-0.1863,-0.1856,-0.1853,-0.1838,-0.1834,-0.1824,-0.1816,-0.181,-0.1827,-0.1815,-0.1825,-0.184,-0.1842,-0.1845,-0.1847,-0.1854,-0.1856,-0.1826,-0.1826,-0.1827,0,-0.1936,-0.193,-0.1914,-0.1912,-0.1907,-0.1888,-0.1889,-0.1882,-0.1867,-0.1864,-0.1857,-0.1844,-0.1834,-0.1833,-0.1837,-0.1833,-0.1833,-0.1827,-0.1846,-0.1848,-0.185,-0.1856,-0.1858,-0.1828,-0.1828,-0.1828,-0.1827,0,-0.195,-0.1947,-0.1949,-0.1936,-0.1931,-0.1931,-0.1915,-0.1912,-0.1901,-0.1891,-0.1889,-0.1876,-0.1867,-0.1866,-0.1855,-0.1864,-0.186,-0.1849,-0.1837,-0.1855,-0.186,-0.1862,-0.183,-0.1829,-0.1829,-0.1829,0,0,-0.1984,-0.1962,-0.1963,-0.1958,-0.1942,-0.1939,-0.1938,-0.193,-0.1928,-0.1919,-0.1918,-0.191,-0.1901,-0.1894,-0.1883,-0.1885,-0.19,-0.1874,-0.1873,-0.188,-0.1909,-0.1917,-0.192,-0.1892,-0.1892,-0.1892,-0.191,0,-0.2,-0.1998,-0.1983,-0.1985,-0.1982,-0.1964,-0.1963,-0.1954,-0.1944,-0.194,-0.1929,-0.1924,-0.1912,-0.1908,-0.1909,-0.1898,-0.1905,-0.1896,-0.1891,-0.1891,-0.1895,-0.1923,-0.1931,-0.1949,-0.1912,-0.1912,-0.1913,0,-0.2019,-0.2012,-0.2014,-0.1999,-0.1997,-0.1997,-0.1988,-0.1985,-0.1974,-0.1967,-0.196,-0.1948,-0.1946,-0.1934,-0.1932,-0.1926,-0.1923,-0.1917,-0.1917,-0.1916,-0.1903,-0.1923,-0.1954,-0.1957,-0.1916,-0.1915,-0.1915,0,-0.2044,-0.2035,-0.2035,-0.203,-0.2013,-0.2014,-0.2006,-0.1995,-0.1991,-0.1984,-0.1981,-0.1973,-0.1969,-0.1964,-0.1949,-0.1942,-0.1949,-0.1935,-0.1943,-0.1944,-0.1946,-0.1946,-0.1977,-0.1943,-0.1943,-0.1943,-0.1943,0,-0.2065,-0.2067,-0.2046,-0.2046,-0.2048,-0.2031,-0.2033,-0.2024,-0.2015,-0.2013,-0.1997,-0.1995,-0.1976,-0.1973,-0.1962,-0.1962,-0.196,-0.1954,-0.1952,-0.1956,-0.1957,-0.1954,-0.1953,-0.1944,-0.1944,-0.1944,-0.1943,0,-0.2093,-0.2079,-0.2078,-0.2062,-0.2058,-0.2061,-0.2047,-0.2047,-0.2036,-0.2034,-0.2033,-0.2016,-0.2011,-0.1997,-0.1988,-0.198,-0.1984,-0.1978,-0.1988,-0.1986,-0.1995,-0.1995,-0.2026,-0.2029,-0.1993,-0.1993,-0.1994,0,-0.2107,-0.2108,-0.2093,-0.2091,-0.2085,-0.2081,-0.2077,-0.2061,-0.2058,-0.2046,-0.2047,-0.2041,-0.2036,-0.2029,-0.2016,-0.201,-0.2004,-0.2015,-0.2003,-0.2008,-0.2005,-0.2005,-0.2005,-0.2018,-0.2018,-0.2019,-0.2019,0,-0.2134,-0.2128,-0.2123,-0.2116,-0.2112,-0.2106,-0.2098,-0.2097,-0.2079,-0.2077,-0.2072,-0.2067,-0.2059,-0.2053,-0.2045,-0.2038,-0.2026,-0.2023,-0.2025,-0.203,-0.2036,-0.2033,-0.1996,-0.2022,-0.2022,-0.2022,-0.2022,-0.2022,-0.2156,-0.2157,-0.2146,-0.2142,-0.2135,-0.2129,-0.2128,-0.2118,-0.2113,-0.2105,-0.2096,-0.2093,-0.2082,-0.207,-0.2064,-0.2061,-0.2054,-0.2056,-0.2057,-0.2058,-0.206,-0.2036,-0.2059,-0.2059,-0.2059,-0.2059,-0.2058,0,-0.2183,-0.2176,-0.2172,-0.2162,-0.2159,-0.2148,-0.214,-0.2138,-0.2135,-0.2127,-0.2122,-0.2116,-0.2111,-0.2098,-0.2092,-0.2092,-0.2086,-0.2091,-0.2091,-0.209,-0.2066,-0.2066,-0.2096,-0.2096,-0.2096,-0.2096,-0.2096,-0.2096,-0.2197,-0.2197,-0.219,-0.2187,-0.2179,-0.2176,-0.2172,-0.2167,-0.216,-0.2155,-0.2151,-0.2143,-0.2133,-0.2125,-0.212,-0.2117,-0.2115,-0.2122,-0.2116,-0.2095,-0.2091,-0.2088,-0.2087,-0.2121,-0.2121,-0.214,-0.214,-0.214]}]]